Wind_Speed
84 82 82 81 80 80 79 79 77 76 74 73 71 70 69 68 66 64 63 61 60 58 57 56 53 53 52 51 50 48 49 50 48 46 42 41 42 43 46 46 44 44 46 44 39 40 42 42 40 37 38 38 38 40 41 41 40 39 38 37 35 34 33 34 34 30 30 29 27 26 24 23 22 20 19 18 16 13 12 11 10 9 7 6 5 5 5 4
86 85 83 82 81 81 81 80 79 77 76 74 73 72 70 69 68 67 65 63 61 60 59 57 54 53 54 53 51 51 52 52 50 47 43 43 45 45 46 47 45 44 47 46 41 41 43 44 42 40 40 39 39 41 42 43 42 40 39 37 35 36 37 38 36 32 31 29 27 26 25 25 23 22 20 19 16 14 13 11 10 10 8 7 6 5 5 4
88 87 85 83 82 82 82 81 80 79 78 76 74 73 72 71 70 69 67 65 63 62 60 59 56 54 54 54 53 53 53 53 51 48 45 45 45 45 46 45 45 44 46 48 44 43 43 45 44 40 41 43 42 43 45 46 43 40 40 38 37 39 40 39 36 33 33 31 29 29 27 26 24 23 21 19 17 15 13 11 11 11 9 8 7 6 6 5
91 90 87 85 83 82 83 83 82 81 79 78 76 75 73 72 71 71 69 68 65 63 62 61 59 56 56 55 55 55 54 55 52 48 46 47 46 45 46 45 44 44 46 49 46 44 43 45 46 38 38 45 45 45 47 48 45 42 40 37 39 42 41 39 36 35 34 32 31 30 28 26 25 24 22 20 18 16 14 13 13 11 10 9 8 8 7 7
94 93 91 87 84 82 83 85 83 83 82 79 78 76 75 74 72 72 71 70 67 65 63 62 59 55 54 56 56 57 56 56 53 49 48 47 45 45 45 45 44 44 47 50 48 44 43 43 45 39 36 42 46 46 48 48 47 45 41 39 42 43 41 38 35 35 35 33 32 31 28 27 27 26 23 22 20 18 16 14 13 12 10 11 10 9 8 8
97 95 93 90 85 82 83 86 85 84 83 81 80 78 77 75 74 73 72 71 69 66 64 63 60 53 51 54 58 59 58 57 54 53 52 48 45 44 46 45 44 43 43 48 49 44 42 42 43 41 36 41 45 46 49 49 48 45 42 42 43 41 39 37 35 35 34 33 33 31 29 28 28 26 24 22 21 19 17 15 14 13 13 14 12 11 9 9
99 96 94 92 88 83 82 84 87 85 84 83 81 80 78 77 75 74 73 72 71 67 65 64 62 57 53 54 59 62 60 57 57 57 54 50 47 45 47 47 45 42 39 42 45 43 43 41 41 41 38 41 44 46 50 51 49 44 42 44 43 40 39 37 37 36 35 33 34 33 31 30 29 27 25 23 22 20 17 16 17 16 16 15 13 11 10 9
100 93 90 94 90 84 80 80 84 86 85 84 83 81 79 78 77 75 74 73 71 68 66 65 63 61 59 56 59 61 56 55 57 58 55 51 49 48 48 48 46 44 41 41 42 43 44 42 41 41 39 41 46 48 51 52 50 45 43 45 43 41 39 38 38 37 36 35 35 34 32 31 29 28 27 24 22 20 19 20 19 19 18 16 13 12 10 9
100 89 84 92 92 86 80 76 79 83 86 86 84 83 80 79 78 75 74 73 71 68 66 65 63 63 64 61 61 59 54 55 58 59 57 53 50 50 48 47 47 46 44 44 43 42 44 43 41 41 40 42 47 49 51 53 51 46 45 45 43 41 39 40 38 38 38 37 36 36 33 31 30 29 27 25 22 21 22 22 21 20 19 17 15 14 12 11
100 90 81 84 90 89 81 75 75 78 82 84 83 83 81 79 77 76 74 72 71 68 66 65 62 65 68 65 64 61 56 57 60 60 59 56 53 51 49 48 47 46 46 47 45 43 43 43 41 41 41 42 46 49 52 53 52 49 48 46 44 42 41 41 39 39 40 39 38 37 34 33 32 30 28 26 23 23 24 23 21 21 21 18 16 15 13 12
99 94 81 74 83 89 82 74 73 75 76 77 80 80 80 79 76 74 73 71 70 67 65 63 62 65 67 66 63 59 59 59 58 59 59 57 55 52 51 52 49 46 47 47 45 44 45 45 43 41 41 42 46 50 52 53 52 50 50 47 44 43 42 42 41 41 42 41 39 37 35 34 32 29 29 28 26 26 26 24 23 23 21 18 16 15 14 13
98 96 85 71 76 87 85 77 72 73 74 73 75 76 76 77 74 72 71 69 67 65 63 62 62 64 66 67 61 53 58 61 58 59 58 56 56 54 54 54 51 47 46 44 43 44 47 46 45 43 42 43 47 52 53 53 53 51 49 47 44 43 43 43 43 43 43 42 40 38 37 36 32 30 32 31 28 28 27 25 24 23 21 19 17 15 14 14
96 97 92 77 73 82 86 83 76 70 72 74 74 73 70 71 72 69 68 66 64 62 61 61 62 64 66 66 61 53 54 58 58 59 58 57 57 56 56 54 52 48 45 43 42 41 43 43 43 44 44 44 47 52 54 54 55 52 48 46 45 44 45 45 45 44 43 42 41 40 39 35 32 33 35 33 29 28 27 26 25 24 22 20 18 17 16 16
95 94 95 84 74 79 82 83 82 72 70 74 74 73 69 68 69 67 65 63 61 60 60 61 61 63 64 63 61 57 53 53 55 57 57 57 56 56 57 55 51 47 44 43 40 37 37 38 40 42 44 44 46 52 55 57 57 53 49 47 47 46 47 47 46 45 44 43 42 40 38 35 34 37 37 33 30 29 28 27 26 25 23 21 19 18 17 16
93 90 92 88 77 78 80 78 79 76 72 73 72 72 71 69 68 66 64 61 60 61 62 62 62 63 62 60 58 58 56 53 53 55 56 55 54 55 56 54 51 47 45 45 41 37 36 36 37 39 41 43 46 52 57 59 58 54 51 49 49 49 48 47 46 45 45 43 42 41 38 35 36 38 36 34 31 30 29 28 27 26 24 22 21 19 18 16
91 87 88 91 81 76 81 77 74 75 74 73 70 69 71 71 69 67 64 63 64 65 63 64 64 63 62 61 59 57 56 55 53 54 55 54 53 54 55 52 51 48 45 45 42 39 38 37 36 37 38 40 44 52 58 59 59 56 52 51 50 50 49 48 47 46 45 44 43 41 38 37 38 38 36 35 32 30 30 30 28 27 25 23 22 20 19 17
87 84 83 91 87 76 81 82 73 73 75 75 72 71 72 72 70 68 66 66 68 66 64 64 64 63 62 63 63 59 55 53 54 54 54 54 54 55 54 50 49 48 45 43 42 41 39 38 37 36 37 36 41 51 58 60 59 57 54 52 51 50 50 48 47 46 45 44 43 41 38 37 39 38 37 35 33 32 31 31 29 27 25 24 22 21 20 18
82 81 80 88 89 77 79 84 76 73 76 77 76 75 74 74 72 70 68 69 70 67 66 66 66 65 65 64 63 59 54 52 53 54 55 54 54 56 54 51 50 48 45 44 43 42 40 39 37 35 35 35 37 45 54 58 59 57 54 52 51 50 49 48 47 46 45 44 42 41 39 38 38 38 37 36 35 33 32 32 30 26 25 24 23 22 21 19
79 79 80 85 88 80 79 83 76 73 77 78 79 79 77 76 75 71 71 73 73 70 68 68 68 67 65 62 59 56 54 53 54 54 56 55 54 56 55 52 51 49 46 45 44 42 41 39 38 35 33 32 33 40 51 58 58 55 52 50 49 48 48 47 46 45 44 43 43 42 39 39 39 40 39 38 37 35 33 31 29 27 26 25 24 23 22 20
76 77 79 84 88 83 81 83 76 72 78 78 79 83 82 80 80 76 74 72 69 67 64 62 62 62 61 58 57 57 56 56 56 56 56 55 55 56 56 53 51 50 47 46 44 42 41 39 37 34 31 30 32 39 53 60 57 54 52 50 48 48 47 46 45 44 43 43 43 42 41 41 42 42 41 40 38 36 32 30 29 28 27 26 25 24 23 22
73 75 78 85 90 85 82 83 77 73 76 76 76 81 81 79 78 74 72 69 65 64 63 59 58 59 59 57 55 56 57 58 59 58 56 55 55 56 56 53 52 50 47 46 45 42 41 39 36 34 33 32 33 42 55 60 57 55 54 51 49 49 49 46 45 45 44 43 43 43 44 44 43 42 41 40 37 34 32 30 30 29 28 27 26 25 24 24
71 73 78 88 91 85 83 82 76 74 75 72 72 74 73 71 68 65 68 69 66 66 65 62 60 59 58 56 53 52 53 54 57 58 57 56 56 56 56 53 51 50 47 45 45 43 41 39 36 36 36 35 36 45 56 60 58 56 54 52 50 51 50 47 46 46 45 44 44 45 45 44 42 40 40 39 36 33 33 31 30 31 30 28 26 26 26 26
70 73 81 91 91 83 83 81 73 75 78 72 68 66 64 65 63 62 65 68 68 68 65 63 62 62 60 57 54 52 51 50 51 53 53 54 53 53 55 53 50 50 48 46 45 43 41 39 38 39 38 38 39 46 56 61 59 56 53 52 51 50 49 47 46 46 46 45 44 45 45 43 42 41 40 39 36 34 35 33 31 32 31 28 27 27 27 26
70 75 84 92 92 84 81 78 71 75 80 77 71 64 62 65 65 66 68 68 70 70 66 64 64 64 62 58 55 52 50 49 49 51 51 50 50 50 52 51 49 48 47 45 44 43 41 39 39 39 39 40 42 47 55 61 60 56 54 52 49 47 46 45 45 45 46 45 44 45 45 44 42 41 39 38 38 36 36 34 32 32 31 29 29 27 27 27
72 79 87 91 93 89 81 75 70 75 81 82 77 69 66 68 68 69 72 72 71 71 70 69 67 66 64 59 56 52 49 49 50 50 49 47 46 46 47 47 47 46 45 44 43 43 42 40 39 39 40 40 43 47 54 61 61 56 54 51 48 45 44 44 44 44 46 46 45 45 46 44 42 41 39 38 40 37 35 35 33 32 31 30 29 27 27 27
76 83 89 90 93 93 86 76 71 75 80 81 77 72 71 71 71 72 73 73 72 71 72 73 71 69 66 61 58 54 50 49 49 48 48 46 44 43 43 44 44 43 43 42 41 41 41 40 39 39 40 40 43 47 53 60 60 55 53 49 47 46 43 44 44 44 45 46 46 46 47 45 42 41 39 38 38 36 35 35 32 31 31 31 29 28 28 28
80 82 85 90 94 95 87 75 73 75 77 79 76 74 75 74 74 73 72 74 74 71 72 73 72 71 68 64 59 55 52 51 50 48 47 46 45 44 43 44 43 41 42 41 41 41 40 40 40 40 40 41 43 47 53 59 59 56 53 48 47 46 43 43 43 44 45 46 46 47 47 46 44 42 40 38 38 36 35 34 31 30 31 30 29 28 28 28
78 78 80 87 92 95 84 71 71 74 74 78 78 76 77 75 76 76 75 78 76 71 70 71 71 70 67 63 58 55 52 51 51 51 49 47 46 46 45 45 43 40 40 41 42 40 39 39 39 40 41 42 43 48 54 57 58 57 52 47 45 45 42 40 41 42 44 47 48 47 47 48 45 42 40 39 37 35 33 31 31 30 30 29 28 27 28 28
72 73 76 80 82 88 80 66 69 76 77 80 78 78 79 77 78 77 76 79 76 70 68 69 71 69 66 62 57 55 53 51 49 48 48 49 48 46 45 44 42 39 38 39 38 36 35 35 35 37 39 40 42 48 53 55 56 55 52 47 44 43 41 39 40 42 44 48 49 47 46 48 46 42 40 40 37 33 31 31 31 30 29 28 26 26 27 27
67 68 72 76 76 79 74 66 70 77 80 81 79 79 80 79 81 79 78 80 76 72 70 70 71 70 66 62 58 56 55 53 50 48 47 47 46 44 44 42 41 39 39 38 37 35 33 32 33 34 36 38 41 47 51 53 54 55 53 49 45 42 41 39 40 42 45 48 49 47 46 48 48 45 42 39 35 32 31 31 31 29 28 27 26 26 27 27
65 69 72 75 75 72 69 69 73 77 79 81 81 81 81 81 81 80 80 78 76 75 73 71 72 71 66 62 58 56 55 53 51 51 50 48 46 45 45 44 42 41 39 38 38 37 35 35 35 35 36 39 42 46 49 52 54 54 54 52 47 43 42 40 42 44 46 49 48 46 46 48 49 46 42 38 34 32 31 31 30 29 28 27 27 27 27 27
65 73 74 72 70 67 66 70 75 79 80 80 82 84 83 82 80 80 79 76 76 77 72 69 69 69 64 58 55 55 55 54 52 51 50 49 49 47 47 46 44 44 43 42 42 40 38 38 38 37 37 39 43 46 50 53 55 55 55 52 48 45 44 43 44 46 48 48 46 45 46 49 50 46 41 39 35 33 32 31 30 30 29 29 28 28 27 27
64 70 70 67 68 67 67 73 80 84 84 81 82 83 81 81 79 78 77 76 75 74 69 65 62 63 62 58 56 54 52 52 52 52 50 49 48 46 46 44 43 43 42 43 44 44 43 42 41 40 39 41 44 47 50 53 55 56 55 52 48 48 47 45 44 46 47 47 44 44 46 49 49 44 41 40 37 35 33 32 31 31 30 30 30 29 28 27
63 64 64 64 67 69 70 78 83 85 85 83 81 80 80 81 78 75 75 75 73 70 67 62 57 57 59 59 57 56 54 53 53 53 52 51 50 48 46 44 43 42 41 41 42 43 43 43 43 42 42 43 45 47 48 48 49 50 49 47 46 46 45 43 41 42 43 44 43 43 46 50 49 44 41 41 39 37 35 33 32 31 31 30 30 30 29 28
59 61 64 66 68 71 74 81 84 84 84 83 81 80 81 80 75 73 75 75 74 71 65 57 53 53 55 56 56 56 56 56 55 54 53 51 49 48 47 46 44 44 43 42 42 41 40 39 39 40 40 41 43 45 46 46 47 48 48 47 47 47 46 43 41 40 41 43 44 45 48 50 47 44 42 41 40 39 37 36 34 33 31 30 30 30 30 30
60 65 68 69 71 74 79 82 83 83 81 81 81 81 81 78 72 70 70 71 73 70 62 56 54 54 55 55 55 55 55 54 55 55 54 51 49 47 47 46 44 43 43 42 43 43 41 39 38 38 39 39 40 43 45 47 49 50 50 50 50 48 45 42 41 40 40 42 44 46 48 48 46 45 43 41 40 40 38 37 36 34 33 32 31 30 30 30
66 69 69 69 73 78 81 82 82 81 80 79 80 80 80 79 75 72 69 69 69 65 60 58 58 57 56 55 54 54 54 56 56 55 53 52 50 48 47 46 43 41 40 40 40 40 40 40 39 38 38 39 39 40 42 45 47 50 50 49 46 44 44 43 42 42 42 44 47 48 48 47 46 46 44 41 40 38 37 37 36 35 34 34 33 31 30 30
68 69 68 70 75 79 81 82 80 79 78 76 76 76 76 76 76 75 73 72 69 64 59 58 58 57 56 54 53 52 53 56 57 56 54 52 49 47 47 46 44 42 41 40 41 40 38 38 38 37 38 39 39 40 41 42 44 47 48 47 44 43 44 46 46 46 46 45 47 48 48 47 47 45 42 40 39 38 37 36 36 35 35 35 34 34 33 32
70 68 68 72 78 80 80 81 78 76 77 76 74 72 70 70 71 72 71 69 68 64 60 58 56 56 56 55 54 54 54 55 56 56 55 53 50 48 47 46 44 43 43 43 43 41 40 39 39 38 38 39 40 41 40 40 41 43 46 47 47 47 46 46 46 48 48 47 48 49 49 49 48 44 41 39 38 37 37 37 37 37 36 36 36 36 36 35
70 68 69 74 81 82 80 79 77 76 76 74 72 69 67 66 66 67 67 65 65 63 60 59 57 56 56 56 55 54 54 56 57 56 54 52 52 50 49 48 46 44 45 45 45 44 42 41 40 40 40 41 41 41 40 39 39 39 41 43 45 47 47 47 46 47 48 49 50 52 52 52 49 45 43 42 40 38 38 38 38 38 38 38 38 38 38 39
67 68 70 76 82 83 82 80 78 76 75 73 70 68 67 66 65 65 64 62 62 60 58 58 58 57 56 57 56 54 53 54 55 56 55 53 52 51 50 49 46 45 47 48 48 47 46 45 43 42 41 41 40 39 39 39 38 39 39 38 39 40 42 44 46 47 49 50 51 53 54 54 50 47 46 45 44 42 42 41 41 40 40 40 41 41 41 41
66 69 72 77 83 84 83 82 79 77 76 74 71 68 67 67 65 64 64 62 62 60 57 58 58 57 56 55 54 53 53 53 53 55 55 53 52 51 50 50 48 46 47 49 49 48 47 46 46 44 42 41 40 39 39 39 39 40 40 38 38 39 39 41 43 44 45 48 49 50 54 55 51 48 48 47 46 45 45 45 44 43 42 42 42 43 44 44
67 72 75 79 84 84 83 82 81 80 78 74 71 69 68 67 66 65 64 63 63 61 60 59 58 57 56 54 52 51 51 51 53 54 55 54 54 52 51 51 49 47 48 49 49 48 47 47 46 45 43 42 41 40 40 39 40 40 39 39 40 40 40 40 40 40 41 43 44 46 52 55 50 48 49 48 48 47 45 45 45 44 44 44 44 44 45 45
69 74 79 83 86 85 84 83 81 81 79 75 72 71 69 68 67 67 65 64 63 62 61 60 59 57 56 54 52 50 49 50 51 53 54 54 54 54 53 52 51 49 48 48 48 48 48 49 48 46 45 44 44 43 43 42 42 42 42 42 42 41 40 40 40 40 41 41 40 42 47 47 41 41 45 45 46 47 46 46 46 46 46 46 46 46 46 46
71 77 81 84 85 83 84 82 80 80 80 78 75 73 71 70 68 67 66 65 64 63 61 60 59 58 57 55 53 51 49 48 49 50 53 53 54 54 53 52 51 50 48 47 47 47 47 48 47 47 47 46 44 44 42 41 43 43 42 42 41 41 41 41 41 42 40 38 38 38 37 34 31 34 39 41 42 45 46 47 47 47 47 47 47 47 47 47
72 78 80 84 85 83 82 81 80 79 79 79 77 75 73 72 70 68 67 65 64 63 61 60 59 59 59 57 55 53 51 49 49 49 50 52 54 54 53 52 51 51 50 50 49 48 48 47 47 47 46 44 43 41 39 39 40 40 38 39 41 41 42 42 43 43 39 38 39 35 31 31 31 34 38 39 40 42 44 45 46 46 46 47 47 47 47 47
72 75 73 75 78 80 82 83 81 80 78 77 77 76 75 73 71 70 69 66 65 63 62 60 60 59 59 59 56 54 52 51 51 51 50 51 52 53 54 54 53 52 52 53 53 52 52 51 49 49 48 47 46 44 42 41 41 40 40 41 42 43 44 45 45 42 38 40 41 34 31 34 33 31 33 35 37 40 43 44 45 46 47 47 47 47 46 46
67 69 69 65 62 65 70 73 75 76 77 75 75 75 74 73 72 71 69 67 66 64 63 61 60 59 58 57 56 54 53 52 52 52 52 53 53 53 55 56 56 54 54 54 54 54 54 53 51 50 50 51 50 49 47 46 45 44 44 45 44 45 46 46 45 43 41 43 41 34 34 36 32 27 28 30 32 35 37 41 44 46 46 47 47 46 46 45
58 63 69 66 60 58 60 64 72 77 78 77 75 74 73 72 71 70 69 67 66 65 63 62 60 59 58 56 55 54 54 54 54 54 54 54 54 55 55 56 57 56 55 55 54 54 54 54 53 53 52 52 52 52 51 50 50 50 49 49 48 48 48 47 45 44 44 45 41 38 40 39 33 29 28 29 31 31 33 37 39 39 39 40 42 44 46 45
54 57 61 63 63 62 62 67 74 79 79 78 77 75 73 71 69 69 68 66 65 64 63 62 60 58 58 57 56 55 54 53 52 52 52 52 52 54 55 56 56 55 54 53 53 53 53 54 54 53 53 54 54 53 53 54 54 53 53 53 52 51 50 48 46 45 47 47 43 42 43 39 34 32 31 31 33 34 35 36 35 34 34 35 37 40 42 44
54 54 54 57 61 64 66 69 72 76 79 79 77 75 73 71 69 68 66 64 63 61 60 60 59 58 58 58 57 55 53 51 49 47 46 44 43 44 46 48 50 50 50 50 51 52 52 54 54 54 55 56 55 55 56 56 55 56 57 55 53 51 49 48 47 47 49 47 43 44 44 40 36 35 33 34 38 40 39 38 37 37 37 38 38 39 41 42
53 55 56 58 60 63 67 70 72 73 74 73 73 74 73 72 70 68 65 63 61 59 57 56 56 57 58 58 56 53 51 49 47 44 42 39 37 35 36 38 40 42 44 45 47 49 50 52 53 53 55 55 54 55 55 55 57 58 54 50 50 50 49 49 49 49 48 47 46 46 43 39 39 38 35 38 42 43 42 41 41 41 41 42 43 43 43 43
Wind_Direction
210 210 210 209 209 210 210 212 213 214 216 216 216 217 219 220 220 220 220 219 219 220 220 221 222 222 224 225 223 225 229 229 229 228 225 224 222 222 225 228 229 233 235 227 222 221 217 215 216 220 224 220 207 196 198 202 204 205 205 207 209 211 209 209 209 203 205 209 207 206 208 210 209 208 206 207 208 202 199 198 201 208 204 200 196 182 183 192
210 211 210 209 209 210 210 211 213 214 215 217 217 217 218 220 221 221 221 219 219 220 220 220 221 222 224 225 223 224 228 230 231 230 225 222 223 224 226 229 229 230 233 229 222 221 219 216 218 222 224 224 214 200 197 202 204 204 205 207 207 209 209 211 210 205 206 208 208 208 210 212 211 211 210 210 208 205 205 202 205 210 207 206 202 193 193 198
210 210 210 210 210 211 211 211 212 213 215 217 218 218 218 220 221 221 221 221 219 220 220 220 220 221 222 224 223 223 227 230 231 231 226 222 222 224 227 229 231 231 232 230 223 221 220 216 218 225 226 226 219 206 200 202 203 203 204 205 207 210 211 212 209 206 207 207 208 209 210 212 212 213 213 212 211 207 206 205 211 214 210 209 207 200 197 202
210 209 210 210 210 211 211 211 212 213 214 216 218 219 219 220 221 222 222 222 220 219 220 220 220 221 222 223 224 224 226 229 230 230 227 224 222 223 227 230 231 233 234 231 224 221 222 218 219 225 227 226 221 210 204 202 201 202 203 204 209 212 212 212 208 207 208 208 209 210 209 211 213 213 212 211 211 207 205 208 214 216 214 214 213 209 203 204
209 209 209 210 210 210 211 212 212 213 214 216 217 218 219 220 221 222 223 222 221 220 220 221 220 220 224 225 225 225 225 228 228 228 229 226 224 224 227 230 231 233 236 234 225 221 226 223 220 222 226 227 224 213 204 202 201 201 201 204 210 213 212 211 208 209 210 209 211 212 210 212 215 214 211 211 210 208 206 208 215 216 215 218 217 215 209 206
208 208 208 210 210 210 211 211 212 213 214 215 217 218 219 220 221 222 223 223 222 221 220 221 219 217 222 227 227 226 225 226 227 228 229 228 224 224 227 230 231 232 237 236 226 221 226 228 222 221 226 228 225 214 203 201 202 201 200 205 211 214 213 210 208 211 212 212 213 213 212 214 217 215 212 211 210 211 207 207 214 214 216 221 220 217 215 210
208 208 209 210 211 211 212 212 212 213 214 215 216 218 219 220 221 221 223 223 223 222 220 220 219 213 214 223 227 227 225 226 227 227 228 228 225 223 226 228 230 231 235 234 227 223 225 229 225 222 228 228 224 213 202 201 202 201 201 205 211 213 212 209 208 210 212 213 214 215 213 215 217 216 213 211 210 210 206 206 212 214 216 221 224 224 221 214
208 208 210 211 210 211 212 213 214 214 215 216 217 218 219 220 221 221 222 223 223 223 220 220 218 213 210 217 224 225 225 226 228 228 227 227 226 223 224 226 229 229 233 233 231 228 224 226 224 222 228 227 221 211 203 202 201 201 203 206 210 212 210 210 210 211 212 214 215 216 216 216 218 217 216 212 209 208 207 208 211 216 219 218 221 227 225 218
208 206 209 212 211 210 211 213 215 216 217 216 217 218 219 220 220 221 222 222 223 223 221 220 218 214 211 216 221 221 222 224 227 229 226 226 227 224 223 225 228 229 231 233 234 232 226 224 222 222 225 224 218 208 204 204 200 200 205 207 210 211 209 209 212 213 213 215 216 217 217 216 218 219 218 214 210 209 210 211 212 217 222 218 217 224 225 221
209 204 206 212 212 210 210 212 216 219 220 219 218 219 219 220 220 221 221 221 222 222 221 220 218 216 213 216 220 219 221 223 225 228 226 224 225 225 224 225 228 229 231 233 235 234 229 226 223 223 224 225 219 208 204 204 199 200 204 207 210 210 208 210 214 215 215 216 216 217 217 217 218 219 219 216 213 213 212 213 212 216 223 221 219 224 227 225
211 205 202 209 213 211 209 211 215 219 221 220 220 220 220 220 220 220 221 221 221 221 221 219 218 218 216 217 219 220 224 225 226 229 227 225 223 223 224 226 227 228 230 233 236 234 230 228 227 227 227 227 221 211 206 203 199 201 204 206 210 210 208 211 215 216 217 218 217 217 218 219 219 219 220 217 214 215 214 213 213 217 221 222 221 225 229 230
214 207 201 205 211 209 208 210 213 218 221 220 219 219 220 220 219 220 220 220 220 220 220 218 217 218 218 217 217 220 224 225 228 229 228 227 224 223 224 225 226 227 230 232 235 233 230 230 230 230 230 229 222 213 207 202 199 201 204 206 209 210 209 212 215 216 218 219 218 217 218 220 218 219 221 218 215 216 215 214 214 217 220 221 221 223 228 232
216 211 205 205 209 208 208 210 212 216 221 222 220 219 219 219 218 219 219 219 219 219 218 218 217 218 219 217 216 220 223 225 227 228 228 227 224 223 224 226 226 227 229 231 231 230 229 230 230 230 230 229 225 217 208 202 201 202 204 206 208 210 210 212 215 216 218 219 219 218 218 219 217 220 222 219 217 218 217 217 216 217 219 220 221 222 226 230
218 215 209 206 207 208 207 209 212 214 218 222 222 220 219 219 217 217 217 217 217 216 215 216 216 217 219 218 218 221 223 223 226 227 227 227 225 224 224 226 227 226 226 227 226 225 227 230 232 231 230 230 227 220 209 201 201 202 203 206 208 210 211 213 215 216 218 218 219 219 218 218 218 222 223 221 219 220 220 220 219 219 218 219 221 224 227 230
219 217 212 205 205 209 207 207 211 214 217 220 221 220 219 218 217 215 214 213 214 214 212 214 215 216 217 216 217 220 221 222 225 227 227 225 225 225 226 226 226 226 223 223 225 226 225 229 233 233 232 231 228 219 208 202 200 201 203 205 207 210 212 214 215 216 218 218 219 219 217 217 220 223 224 222 221 221 223 223 222 221 219 219 221 225 229 232
220 218 214 207 205 209 208 205 209 213 216 218 218 217 215 214 214 212 212 210 211 212 211 212 214 216 215 213 214 217 219 222 224 226 226 224 224 225 226 226 226 225 222 222 225 225 224 227 231 233 234 234 231 219 207 202 201 200 203 206 208 211 212 214 215 216 218 219 219 219 217 217 222 224 223 223 222 222 225 226 225 224 222 221 221 225 229 233
221 218 215 208 204 207 206 205 208 211 213 215 214 212 209 208 209 209 208 208 208 210 210 212 214 214 215 214 215 218 219 222 224 225 225 224 222 223 225 226 224 221 220 221 222 222 222 224 227 232 234 236 235 221 208 204 203 201 203 207 209 211 212 213 214 216 218 219 220 220 218 217 222 225 225 224 224 223 225 228 227 226 226 225 224 226 229 232
221 218 214 208 204 205 205 204 208 212 210 209 209 207 204 203 205 205 205 206 207 208 208 210 213 213 214 215 217 219 219 221 223 224 225 224 222 223 224 226 224 217 216 219 220 221 221 222 225 229 232 235 237 228 215 208 205 202 204 208 210 211 212 212 213 215 217 218 220 220 218 218 222 226 226 226 226 225 225 227 228 227 229 230 228 227 229 232
219 217 213 207 203 206 207 204 207 212 208 202 201 201 202 200 201 202 201 204 209 211 213 215 217 218 218 218 218 218 218 219 222 223 224 224 223 224 224 226 224 217 215 218 219 221 222 223 225 228 233 234 236 232 218 208 204 203 206 210 213 213 214 213 214 215 217 218 220 220 218 218 222 225 226 227 227 226 225 227 229 228 229 231 230 230 230 233
216 215 212 206 202 203 206 204 204 208 206 202 199 197 199 199 199 199 198 204 214 218 222 223 222 222 219 216 216 217 216 216 220 222 224 224 223 224 225 226 225 218 215 218 220 222 223 224 225 228 233 235 234 228 214 205 203 204 206 211 214 215 215 215 215 217 218 219 220 221 218 217 221 224 225 226 227 228 227 227 230 229 229 230 230 231 231 233
212 212 208 203 202 201 201 203 204 207 206 206 205 200 201 205 207 208 206 207 211 214 217 217 217 218 217 215 215 215 216 217 219 220 222 223 223 224 225 226 224 218 217 219 220 222 223 224 225 227 230 233 235 225 211 204 204 205 206 210 212 214 215 214 214 216 218 220 220 220 218 217 221 224 225 227 228 229 229 227 228 230 228 228 230 230 231 233
208 207 203 201 203 200 198 201 204 209 211 209 206 201 202 208 211 213 212 211 209 209 210 208 208 212 213 214 213 211 211 215 218 220 221 222 222 224 225 226 223 219 219 221 222 222 222 221 223 225 226 229 231 224 211 205 205 206 208 210 212 214 214 213 213 215 217 220 220 221 220 218 221 225 226 227 227 228 231 227 227 230 229 228 229 230 231 233
202 203 199 200 204 202 198 200 203 209 213 209 204 200 200 202 202 202 206 211 212 210 208 205 206 208 209 209 209 208 207 210 217 222 224 224 224 224 225 226 224 221 221 221 222 224 224 223 222 223 224 225 227 222 213 207 206 207 209 211 213 215 215 213 213 215 217 220 222 223 223 220 221 225 226 228 226 225 229 229 226 229 231 230 229 229 232 234
198 200 198 200 206 205 198 199 203 207 211 212 208 204 201 199 199 198 200 206 210 211 210 206 207 208 207 207 207 209 209 210 216 221 224 226 226 226 227 227 226 223 222 222 222 225 227 227 225 223 223 223 223 222 216 209 206 208 211 212 214 216 216 214 214 216 218 221 223 225 225 221 221 224 225 228 228 224 226 228 226 228 231 232 231 230 232 235
195 198 196 199 206 206 201 201 207 207 207 209 207 202 198 197 198 198 199 202 207 210 208 205 205 207 206 205 205 205 207 210 214 219 222 224 226 227 227 228 227 225 224 224 224 225 226 227 226 224 223 222 222 222 219 211 206 208 212 213 214 216 217 216 215 217 219 221 222 226 227 223 220 223 223 226 230 227 226 228 227 229 231 233 233 232 232 234
193 196 196 197 203 206 203 204 207 206 203 203 201 197 195 196 197 198 199 201 206 208 205 203 205 207 206 204 202 200 201 205 210 214 218 220 221 223 225 227 227 226 225 225 225 225 226 226 224 223 222 222 222 222 219 213 207 208 212 214 214 215 217 217 216 217 220 222 223 225 229 226 221 223 224 224 229 230 229 230 228 229 232 233 234 233 233 234
192 195 196 198 203 205 204 203 203 203 201 198 194 193 193 194 196 198 198 200 205 207 204 203 204 206 206 204 201 199 200 205 208 211 214 217 219 220 222 224 224 225 225 225 224 223 225 225 223 221 220 220 221 221 218 213 209 209 212 214 214 216 219 218 218 220 221 222 224 225 228 228 223 222 225 225 227 229 230 232 231 230 232 233 233 233 234 235
191 193 195 199 204 206 204 204 202 202 200 195 190 190 193 194 195 197 199 200 202 204 203 203 202 204 203 201 199 198 201 206 209 210 212 215 218 219 220 221 221 222 225 226 225 223 223 224 223 220 219 220 219 217 215 213 211 210 212 215 215 218 221 221 221 222 222 223 225 226 228 230 225 221 225 226 225 227 229 233 235 232 232 234 235 236 237 237
190 193 195 199 202 204 205 205 203 200 196 191 189 190 192 194 195 197 200 201 201 202 204 204 203 202 201 198 196 195 197 203 207 211 212 213 215 217 218 219 218 217 220 223 225 224 222 222 222 220 220 221 218 214 213 213 213 212 213 215 216 219 222 223 222 223 225 224 224 226 228 231 228 221 224 228 226 225 228 233 237 237 236 236 238 240 241 241
188 192 196 198 198 200 202 203 200 196 191 187 188 191 192 195 197 198 201 202 202 203 204 206 205 204 202 198 195 194 196 200 203 207 211 214 215 215 216 216 215 214 214 217 220 220 219 220 221 221 219 218 216 215 214 214 215 214 215 216 216 220 223 224 223 224 226 225 224 226 228 231 230 222 221 228 228 226 228 232 238 241 241 239 239 241 243 244
189 192 193 196 197 198 200 200 196 190 188 187 188 192 195 196 197 199 201 201 203 204 204 205 206 206 204 200 197 195 197 200 203 206 209 212 215 215 216 215 213 212 212 214 217 216 214 214 217 218 217 214 213 213 214 215 216 216 216 216 216 220 224 225 224 224 225 226 225 226 228 231 231 224 221 226 230 230 230 232 236 240 242 242 242 242 243 245
190 193 192 196 199 199 200 199 191 186 188 190 190 193 196 197 198 201 200 200 204 206 204 205 206 206 206 203 200 199 199 201 204 208 212 214 215 216 218 219 218 217 216 215 216 215 213 214 214 214 213 213 212 212 214 215 216 217 217 217 217 219 223 225 226 225 225 227 227 228 230 232 231 228 226 228 230 232 233 233 235 237 240 242 243 244 245 246
191 193 195 199 200 199 199 194 187 186 188 191 194 194 196 198 199 200 199 200 205 207 206 206 206 206 207 205 201 200 200 202 205 208 211 214 216 217 219 219 219 221 222 220 217 213 210 212 213 212 211 212 212 212 215 216 217 218 218 218 217 219 222 224 227 227 227 229 230 230 232 233 232 231 231 232 232 232 233 234 235 237 239 242 244 245 246 247
189 191 196 197 198 200 196 188 186 187 188 191 195 196 197 199 200 200 201 202 205 205 203 202 201 201 204 205 204 201 200 202 206 209 210 210 212 215 218 219 218 219 220 221 222 219 216 216 215 212 210 210 211 212 214 217 220 222 222 221 221 222 225 227 230 231 231 232 233 233 234 233 233 234 234 235 236 235 235 236 236 237 239 243 246 248 249 249
186 191 196 197 198 197 189 183 187 189 189 190 194 197 199 199 198 198 200 202 202 200 196 197 199 200 202 203 204 204 203 203 205 208 211 213 214 215 217 219 218 218 216 216 219 221 221 222 221 217 214 212 211 213 214 215 219 221 222 223 223 223 225 228 230 231 232 233 234 233 233 233 235 236 236 237 238 238 239 239 238 239 239 241 245 248 251 252
186 192 195 199 197 189 182 183 188 190 191 192 194 197 199 198 196 195 196 197 199 199 195 195 198 200 202 203 203 204 205 205 207 208 210 212 215 217 219 220 219 219 219 217 218 218 217 217 216 217 218 215 214 216 217 218 219 221 221 222 222 223 224 227 230 231 231 233 234 233 233 234 236 237 237 237 239 240 242 243 243 243 242 243 244 246 249 252
188 193 196 199 193 183 181 185 188 190 192 195 197 198 197 199 200 199 199 200 202 202 201 200 200 200 203 205 204 204 204 205 207 210 212 212 213 214 217 220 219 219 221 220 220 220 218 216 214 214 216 215 216 218 220 222 224 225 225 225 225 225 226 227 230 232 232 232 233 232 232 233 235 237 237 238 240 241 243 244 246 247 247 247 247 247 249 251
189 194 198 196 188 181 182 186 189 191 192 195 199 199 198 200 202 202 204 206 208 208 205 205 206 204 205 208 209 208 206 206 207 209 211 214 215 215 216 218 216 215 217 217 219 220 219 219 218 216 217 217 218 220 223 226 228 228 229 229 228 228 229 230 232 234 234 235 235 234 233 233 234 236 238 240 242 243 243 244 246 248 249 250 251 252 253 254
193 196 197 192 184 182 184 186 189 191 193 195 196 199 201 203 203 203 205 207 210 210 206 206 208 208 208 208 209 209 209 209 209 209 210 212 214 214 217 219 217 213 214 214 216 218 217 218 218 217 217 218 219 222 224 227 229 230 230 230 229 230 231 232 234 236 238 240 239 238 236 235 234 236 239 242 243 245 246 247 248 249 251 252 254 255 257 258
197 199 196 188 183 183 184 187 189 192 194 194 195 197 201 204 205 205 205 206 208 208 206 205 206 209 211 209 208 209 209 209 209 210 211 212 212 213 214 218 216 213 213 213 214 216 217 219 220 218 217 218 220 222 225 228 231 234 235 235 235 234 235 235 236 238 240 242 243 242 241 238 236 238 241 244 246 248 249 250 251 252 254 255 257 259 260 261
199 198 193 186 183 183 184 187 189 192 194 194 196 198 199 203 206 206 205 205 207 207 205 205 206 207 210 211 210 208 209 210 210 210 211 212 213 213 213 216 216 213 213 214 213 214 215 216 219 220 219 220 222 223 224 226 230 233 238 241 242 243 242 242 242 242 242 244 245 246 245 242 240 241 243 245 248 250 251 253 254 256 257 259 261 262 262 263
200 196 190 186 184 185 186 189 190 192 194 194 196 199 200 202 204 205 205 204 205 206 204 205 207 207 208 211 212 211 209 210 212 212 212 213 215 216 215 216 216 214 215 216 216 215 215 216 218 220 219 220 222 222 223 225 227 230 233 237 239 241 241 242 243 243 244 246 247 249 249 246 243 244 246 248 250 251 253 255 257 259 260 261 263 264 264 264
199 192 187 185 186 186 189 191 191 193 194 194 195 198 201 202 203 203 204 203 204 205 203 204 207 208 208 209 211 212 211 211 212 214 215 214 215 217 217 216 217 215 215 219 219 218 218 218 219 221 220 220 221 221 222 223 225 228 231 233 235 238 239 240 242 243 245 246 247 250 250 248 246 247 248 250 252 254 256 258 259 260 261 262 262 263 264 264
198 189 184 184 185 187 189 192 192 193 194 194 195 198 200 202 204 203 203 203 204 204 203 204 205 207 209 210 210 211 212 213 214 214 216 217 217 218 218 217 218 217 217 221 222 221 220 220 220 220 220 219 219 219 221 222 224 226 228 230 233 236 238 241 243 244 246 247 248 250 251 250 251 252 252 253 255 256 258 259 260 260 260 261 261 261 261 261
197 187 184 184 186 188 191 193 195 196 194 194 195 198 199 201 204 205 204 204 204 205 204 204 205 206 207 209 210 210 211 214 216 216 216 217 218 220 221 220 220 219 219 222 225 224 224 223 223 224 224 224 224 226 229 231 231 230 231 233 235 237 240 242 245 247 250 252 254 256 257 255 255 254 252 252 253 254 255 257 258 259 260 261 261 261 261 261
196 189 187 186 187 190 193 193 196 198 197 195 196 198 200 201 203 205 206 205 204 204 204 205 206 206 207 208 210 210 210 211 214 216 217 218 218 220 221 222 222 221 221 221 223 225 226 225 224 226 229 233 236 239 241 241 240 241 242 242 241 242 242 243 245 248 253 257 257 257 254 249 246 247 250 253 254 255 258 259 260 262 263 264 264 265 266 267
196 195 195 192 190 193 194 195 196 199 200 199 199 200 201 202 203 205 206 205 204 204 204 205 207 207 207 208 209 210 211 211 211 212 214 216 218 219 221 222 222 222 222 222 223 224 225 225 224 225 227 229 233 235 236 239 241 244 245 244 243 244 244 245 247 250 254 255 252 248 245 244 242 244 251 256 257 257 259 260 260 261 262 264 266 267 269 270
196 196 199 200 200 199 199 200 201 201 201 202 203 203 203 203 204 206 206 205 204 204 204 205 206 207 208 209 210 211 212 212 212 212 213 214 214 217 219 221 222 222 222 223 224 225 227 228 227 227 227 229 230 230 231 232 235 236 238 239 240 241 242 244 246 247 248 249 248 247 246 245 244 245 251 257 259 260 261 260 260 259 260 262 264 266 268 269
199 198 198 201 204 205 204 203 203 202 200 201 204 206 206 206 206 207 207 207 205 204 204 205 205 206 208 209 212 214 214 213 212 213 214 214 214 215 217 219 221 221 221 223 224 225 227 229 229 229 229 230 232 232 232 233 233 233 234 235 236 238 240 242 243 244 246 248 250 250 250 249 248 251 256 262 267 269 268 266 265 265 265 265 265 265 265 265
200 200 200 201 204 206 207 204 202 202 201 201 204 207 208 209 209 209 209 208 207 206 205 205 205 207 209 210 211 214 215 216 216 217 217 218 219 219 218 219 219 220 221 222 223 224 225 227 229 230 230 231 232 233 233 234 234 234 235 235 237 239 241 242 244 245 246 249 251 253 255 255 255 257 261 265 268 269 269 269 270 270 268 266 263 262 261 260
201 201 201 203 204 205 207 207 206 205 204 204 205 207 208 209 210 211 211 210 209 209 208 207 207 207 209 212 212 213 213 215 217 219 221 223 225 226 227 226 224 224 223 223 224 224 224 226 228 229 230 231 232 233 234 235 236 235 235 236 239 241 244 246 247 247 249 252 254 255 257 259 259 260 262 263 264 264 265 266 268 267 266 264 262 260 259 259
202 201 201 203 205 205 206 207 208 209 208 208 208 208 209 209 209 211 212 211 210 210 211 213 212 210 211 212 213 214 214 214 215 216 218 221 222 224 226 227 227 227 227 227 228 227 227 228 230 231 233 233 234 234 236 237 238 237 237 240 242 245 247 248 249 250 252 254 254 255 258 261 262 259 256 255 257 260 262 263 263 265 265 265 264 263 262 261
Height
5663 5669 5674 5680 5687 5693 5698 5704 5709 5714 5719 5723 5728 5733 5737 5742 5745 5749 5753 5756 5760 5764 5768 5771 5775 5778 5781 5785 5787 5791 5793 5796 5799 5802 5806 5809 5811 5813 5815 5817 5820 5821 5824 5827 5830 5832 5834 5837 5839 5841 5843 5844 5847 5849 5852 5854 5855 5858 5861 5863 5866 5869 5872 5873 5874 5877 5878 5879 5881 5883 5884 5885 5886 5887 5888 5888 5889 5890 5891 5892 5894 5895 5895 5895 5895 5896 5896 5896
5656 5662 5668 5674 5680 5686 5692 5697 5703 5708 5713 5718 5723 5727 5732 5736 5740 5744 5748 5752 5756 5760 5763 5768 5771 5774 5777 5780 5783 5786 5789 5792 5795 5799 5804 5805 5806 5809 5811 5813 5816 5818 5820 5824 5827 5829 5831 5834 5837 5838 5840 5842 5844 5846 5849 5851 5852 5856 5859 5862 5865 5866 5868 5869 5872 5876 5877 5878 5880 5881 5882 5883 5884 5886 5887 5888 5889 5890 5890 5892 5893 5894 5894 5894 5895 5895 5895 5896
5648 5654 5661 5667 5673 5679 5685 5691 5697 5702 5707 5713 5718 5722 5727 5731 5735 5739 5743 5747 5752 5755 5759 5763 5766 5769 5772 5775 5778 5782 5785 5788 5792 5797 5800 5801 5803 5806 5808 5810 5813 5815 5817 5820 5824 5826 5828 5831 5834 5836 5837 5839 5841 5843 5846 5848 5850 5853 5856 5860 5862 5862 5864 5867 5871 5874 5875 5876 5877 5878 5880 5882 5883 5885 5886 5887 5888 5889 5890 5891 5892 5893 5894 5894 5894 5894 5895 5895
5639 5646 5653 5659 5666 5673 5678 5684 5690 5696 5701 5707 5712 5716 5721 5726 5730 5734 5738 5742 5747 5751 5755 5759 5762 5765 5767 5770 5774 5777 5781 5784 5789 5795 5796 5797 5801 5803 5806 5808 5810 5813 5814 5817 5821 5823 5824 5828 5830 5833 5834 5835 5837 5840 5843 5845 5848 5851 5854 5858 5858 5859 5861 5865 5869 5871 5872 5874 5875 5876 5878 5880 5882 5883 5884 5886 5887 5888 5889 5890 5891 5893 5893 5893 5893 5894 5894 5894
5630 5638 5645 5652 5659 5666 5671 5676 5683 5689 5694 5700 5706 5711 5716 5721 5725 5729 5733 5737 5742 5746 5750 5754 5758 5761 5764 5767 5770 5773 5776 5780 5787 5791 5791 5795 5799 5800 5803 5805 5807 5809 5810 5813 5818 5821 5822 5824 5826 5829 5832 5833 5834 5837 5840 5844 5846 5848 5852 5855 5854 5856 5860 5864 5868 5870 5871 5872 5873 5875 5878 5879 5879 5881 5883 5884 5886 5887 5888 5889 5890 5892 5892 5892 5892 5893 5893 5894
5621 5629 5637 5645 5653 5659 5664 5669 5676 5683 5688 5694 5700 5705 5710 5715 5720 5724 5728 5732 5737 5741 5745 5749 5753 5757 5761 5763 5765 5769 5772 5777 5783 5785 5787 5792 5796 5798 5799 5801 5804 5806 5807 5809 5814 5818 5819 5821 5823 5826 5829 5830 5832 5835 5837 5841 5844 5847 5850 5851 5852 5855 5859 5863 5867 5868 5870 5871 5872 5874 5876 5877 5878 5880 5882 5883 5885 5886 5887 5888 5889 5890 5891 5891 5892 5892 5892 5893
5613 5622 5630 5638 5645 5652 5658 5663 5669 5676 5683 5688 5694 5699 5705 5710 5714 5719 5723 5727 5732 5736 5740 5744 5748 5753 5756 5759 5761 5764 5769 5774 5777 5780 5784 5789 5792 5794 5795 5798 5800 5803 5805 5807 5811 5815 5817 5819 5821 5823 5825 5827 5830 5832 5834 5838 5841 5845 5847 5848 5850 5854 5858 5861 5863 5865 5868 5869 5870 5872 5874 5875 5876 5878 5880 5882 5883 5885 5886 5887 5887 5888 5889 5890 5891 5891 5892 5892
5605 5615 5623 5630 5639 5647 5654 5659 5664 5670 5676 5682 5688 5693 5699 5704 5709 5714 5718 5723 5727 5731 5735 5739 5744 5748 5752 5756 5758 5762 5768 5771 5773 5777 5782 5785 5788 5789 5791 5794 5797 5800 5803 5804 5808 5812 5815 5817 5818 5820 5822 5823 5826 5829 5831 5834 5838 5842 5844 5845 5848 5851 5855 5858 5861 5863 5865 5867 5868 5870 5872 5873 5875 5877 5878 5880 5882 5883 5884 5885 5886 5887 5888 5889 5890 5890 5891 5891
5597 5608 5616 5622 5631 5640 5647 5653 5658 5664 5669 5675 5681 5687 5693 5698 5703 5708 5713 5718 5722 5726 5730 5734 5739 5742 5747 5751 5755 5760 5765 5766 5768 5773 5778 5781 5783 5786 5789 5792 5795 5797 5800 5801 5805 5809 5813 5814 5814 5816 5818 5819 5822 5826 5829 5831 5835 5839 5841 5843 5846 5849 5853 5856 5858 5861 5863 5864 5866 5868 5870 5872 5873 5875 5877 5879 5881 5882 5883 5884 5885 5886 5886 5887 5888 5889 5890 5890
5591 5602 5609 5616 5624 5633 5641 5648 5653 5658 5663 5669 5675 5681 5687 5692 5698 5703 5708 5713 5717 5721 5725 5729 5734 5737 5742 5747 5751 5758 5759 5760 5763 5767 5772 5777 5780 5784 5787 5789 5791 5795 5797 5798 5802 5807 5810 5810 5810 5811 5814 5817 5819 5823 5826 5828 5832 5835 5837 5840 5843 5847 5851 5853 5855 5858 5860 5862 5863 5866 5868 5870 5871 5874 5876 5878 5879 5879 5880 5882 5884 5885 5885 5886 5887 5888 5888 5889
5584 5595 5604 5610 5617 5626 5636 5643 5649 5653 5658 5664 5670 5675 5681 5687 5693 5698 5703 5708 5712 5716 5720 5725 5728 5733 5739 5743 5750 5756 5755 5757 5760 5763 5768 5773 5776 5780 5783 5785 5788 5792 5794 5796 5799 5803 5805 5805 5806 5809 5811 5814 5817 5819 5822 5825 5830 5832 5834 5837 5841 5845 5848 5850 5852 5855 5857 5859 5861 5864 5867 5868 5871 5873 5874 5875 5876 5876 5878 5880 5882 5883 5883 5885 5886 5886 5887 5887
5576 5588 5598 5604 5609 5618 5628 5637 5643 5648 5653 5659 5665 5670 5676 5682 5688 5694 5699 5704 5708 5712 5715 5719 5723 5729 5734 5739 5748 5751 5749 5753 5756 5760 5765 5769 5773 5776 5778 5781 5785 5788 5791 5794 5796 5798 5800 5801 5804 5807 5809 5811 5814 5816 5819 5823 5827 5829 5832 5835 5839 5842 5845 5847 5849 5851 5854 5857 5859 5862 5864 5866 5870 5872 5871 5872 5873 5874 5876 5878 5880 5881 5882 5883 5884 5885 5886 5886
5569 5580 5591 5598 5604 5611 5621 5629 5636 5642 5648 5653 5659 5666 5672 5678 5683 5689 5694 5700 5705 5708 5711 5714 5718 5723 5728 5737 5745 5745 5745 5749 5752 5756 5761 5765 5770 5772 5775 5778 5781 5785 5788 5790 5792 5794 5796 5798 5802 5804 5806 5808 5810 5812 5815 5819 5823 5826 5829 5832 5836 5839 5841 5844 5846 5848 5851 5854 5857 5859 5861 5865 5868 5868 5868 5870 5872 5873 5875 5876 5878 5880 5881 5882 5883 5883 5884 5885
5562 5573 5584 5593 5600 5607 5616 5624 5630 5638 5643 5646 5652 5661 5667 5672 5678 5684 5691 5697 5700 5703 5706 5709 5714 5718 5725 5735 5740 5740 5742 5746 5749 5754 5758 5762 5766 5769 5771 5774 5778 5783 5785 5787 5789 5791 5794 5796 5798 5800 5803 5805 5807 5809 5812 5815 5819 5822 5825 5828 5832 5835 5838 5841 5843 5846 5848 5851 5854 5857 5860 5864 5865 5865 5866 5869 5871 5872 5873 5874 5876 5878 5879 5880 5881 5882 5882 5883
5555 5566 5577 5588 5596 5603 5612 5620 5627 5633 5637 5641 5648 5655 5661 5667 5673 5679 5686 5692 5695 5698 5701 5705 5709 5715 5722 5730 5733 5735 5739 5744 5748 5751 5755 5759 5763 5765 5768 5770 5774 5778 5781 5783 5785 5788 5791 5793 5795 5797 5799 5801 5803 5806 5809 5812 5815 5818 5821 5824 5827 5831 5834 5837 5840 5843 5846 5848 5851 5854 5858 5862 5862 5863 5865 5868 5869 5870 5872 5872 5874 5875 5877 5878 5879 5880 5881 5882
5549 5559 5571 5582 5591 5598 5607 5617 5623 5628 5632 5638 5643 5648 5654 5661 5667 5674 5682 5687 5689 5691 5696 5700 5705 5711 5717 5723 5728 5731 5736 5742 5746 5748 5752 5756 5759 5762 5764 5767 5770 5773 5777 5780 5781 5784 5787 5789 5792 5794 5796 5799 5800 5802 5806 5809 5811 5814 5818 5821 5824 5827 5831 5834 5837 5840 5843 5846 5848 5851 5856 5859 5860 5861 5863 5866 5867 5869 5869 5871 5872 5874 5875 5876 5877 5878 5879 5880
5543 5553 5565 5576 5586 5593 5602 5610 5617 5622 5627 5632 5637 5641 5646 5653 5660 5668 5675 5679 5680 5686 5693 5698 5703 5708 5712 5717 5724 5729 5735 5740 5743 5746 5749 5752 5756 5759 5762 5765 5767 5769 5773 5775 5777 5780 5783 5786 5789 5791 5794 5796 5797 5799 5802 5805 5808 5811 5815 5817 5821 5824 5828 5831 5834 5837 5840 5843 5846 5850 5854 5857 5857 5859 5861 5863 5865 5866 5867 5868 5870 5872 5873 5874 5875 5876 5877 5878
5538 5548 5559 5571 5582 5589 5595 5603 5611 5616 5620 5624 5629 5634 5639 5645 5652 5660 5667 5671 5674 5680 5686 5690 5696 5701 5706 5716 5724 5730 5735 5738 5740 5743 5746 5748 5752 5755 5758 5761 5762 5765 5769 5771 5774 5777 5780 5783 5785 5788 5791 5793 5795 5797 5800 5803 5806 5809 5811 5815 5819 5822 5825 5828 5831 5834 5837 5841 5844 5847 5851 5854 5855 5857 5859 5860 5861 5863 5864 5865 5867 5870 5871 5872 5874 5874 5875 5876
5532 5543 5554 5567 5578 5584 5589 5598 5605 5609 5612 5614 5618 5624 5631 5638 5646 5652 5659 5663 5667 5674 5680 5686 5694 5702 5711 5720 5725 5728 5732 5733 5735 5738 5741 5745 5749 5751 5754 5757 5758 5762 5765 5768 5772 5775 5778 5780 5782 5785 5788 5791 5793 5795 5799 5801 5804 5806 5810 5814 5818 5821 5824 5827 5830 5832 5835 5838 5841 5844 5848 5852 5852 5853 5855 5856 5857 5859 5862 5864 5866 5868 5869 5870 5871 5872 5873 5874
5527 5538 5551 5563 5573 5578 5584 5592 5599 5602 5604 5605 5608 5613 5620 5627 5633 5641 5652 5664 5674 5683 5690 5697 5703 5708 5713 5716 5718 5721 5723 5725 5729 5734 5738 5741 5744 5747 5751 5753 5755 5758 5762 5766 5769 5772 5775 5777 5780 5783 5786 5788 5790 5792 5795 5797 5800 5803 5807 5811 5815 5818 5821 5826 5829 5831 5833 5836 5838 5841 5845 5847 5847 5848 5850 5852 5854 5857 5860 5863 5864 5865 5866 5867 5869 5870 5871 5872
5522 5533 5547 5559 5567 5572 5579 5587 5594 5596 5598 5602 5608 5613 5619 5625 5633 5644 5657 5667 5675 5681 5687 5695 5700 5703 5707 5709 5712 5716 5717 5720 5723 5728 5732 5736 5739 5743 5746 5749 5753 5757 5760 5763 5765 5768 5771 5774 5778 5781 5783 5785 5787 5789 5791 5793 5796 5799 5802 5806 5810 5813 5817 5822 5825 5828 5830 5832 5835 5836 5839 5842 5843 5845 5848 5849 5852 5856 5858 5860 5862 5862 5863 5865 5866 5868 5869 5869
5516 5529 5543 5554 5559 5566 5575 5583 5590 5594 5596 5601 5609 5618 5628 5636 5647 5658 5664 5665 5669 5671 5676 5684 5689 5695 5702 5706 5709 5711 5713 5716 5719 5722 5727 5731 5735 5740 5743 5747 5751 5754 5757 5758 5761 5764 5768 5772 5775 5777 5779 5782 5784 5785 5787 5790 5793 5796 5799 5803 5806 5809 5813 5818 5821 5824 5827 5828 5830 5832 5835 5839 5841 5843 5845 5847 5851 5854 5855 5857 5859 5859 5860 5862 5864 5865 5866 5867
5512 5525 5538 5547 5553 5560 5569 5579 5587 5591 5594 5602 5611 5621 5631 5639 5648 5656 5661 5665 5665 5665 5671 5678 5681 5687 5692 5697 5702 5705 5709 5714 5717 5721 5726 5729 5734 5737 5740 5743 5747 5749 5752 5755 5758 5762 5766 5769 5771 5773 5775 5777 5780 5782 5783 5786 5790 5793 5797 5800 5803 5807 5811 5815 5819 5822 5824 5826 5828 5829 5832 5836 5839 5840 5843 5845 5848 5851 5851 5853 5855 5856 5858 5860 5861 5862 5863 5864
5508 5521 5532 5542 5548 5555 5565 5575 5581 5586 5595 5605 5612 5620 5628 5635 5643 5650 5654 5658 5659 5662 5670 5676 5678 5682 5686 5692 5698 5702 5707 5712 5715 5719 5723 5727 5731 5733 5737 5740 5742 5744 5748 5752 5755 5759 5763 5766 5767 5769 5771 5774 5776 5778 5780 5783 5787 5790 5793 5797 5801 5805 5809 5813 5817 5819 5821 5823 5825 5827 5828 5833 5836 5837 5840 5843 5844 5846 5848 5850 5852 5853 5855 5857 5858 5860 5861 5862
5503 5515 5526 5535 5543 5551 5561 5568 5574 5582 5592 5598 5605 5614 5622 5630 5639 5645 5647 5648 5653 5659 5663 5666 5670 5676 5682 5688 5692 5697 5703 5706 5710 5714 5719 5724 5727 5730 5733 5735 5737 5741 5746 5749 5751 5755 5758 5761 5764 5766 5768 5770 5773 5775 5777 5780 5784 5787 5790 5795 5799 5803 5806 5810 5814 5816 5818 5820 5822 5824 5825 5829 5834 5835 5837 5839 5840 5844 5846 5847 5850 5851 5853 5854 5855 5858 5858 5859
5498 5508 5520 5530 5538 5546 5553 5561 5571 5578 5584 5591 5601 5611 5619 5627 5634 5638 5641 5644 5648 5653 5656 5658 5663 5671 5677 5682 5686 5692 5696 5700 5705 5710 5714 5718 5722 5726 5729 5731 5735 5740 5742 5744 5747 5751 5754 5757 5760 5762 5765 5768 5770 5772 5775 5779 5782 5785 5788 5792 5797 5800 5803 5806 5810 5812 5814 5816 5819 5821 5821 5826 5831 5832 5834 5836 5838 5841 5843 5845 5847 5849 5850 5851 5853 5855 5855 5856
5494 5504 5515 5524 5532 5539 5549 5560 5567 5573 5581 5589 5599 5607 5615 5622 5628 5633 5637 5638 5640 5646 5652 5655 5659 5666 5673 5677 5682 5687 5690 5696 5701 5705 5710 5714 5718 5722 5725 5729 5733 5736 5738 5740 5743 5748 5751 5754 5756 5759 5762 5764 5767 5770 5773 5777 5780 5783 5786 5790 5794 5797 5800 5803 5807 5809 5811 5813 5815 5817 5818 5822 5827 5830 5831 5833 5835 5838 5840 5842 5845 5846 5847 5848 5850 5851 5852 5853
5492 5502 5512 5521 5531 5543 5554 5562 5566 5574 5583 5589 5595 5603 5610 5617 5621 5626 5628 5627 5631 5639 5647 5653 5658 5664 5668 5672 5678 5684 5690 5695 5698 5701 5706 5710 5714 5718 5722 5726 5730 5732 5735 5737 5741 5745 5748 5750 5753 5755 5758 5760 5764 5768 5771 5775 5778 5781 5784 5787 5791 5794 5797 5800 5804 5806 5808 5809 5811 5813 5816 5817 5823 5828 5829 5830 5833 5836 5838 5840 5841 5842 5843 5845 5847 5848 5850 5850
5493 5502 5512 5522 5534 5544 5554 5560 5565 5571 5578 5584 5590 5596 5603 5609 5613 5618 5620 5622 5628 5637 5644 5650 5655 5657 5660 5666 5674 5680 5687 5691 5695 5700 5703 5705 5709 5715 5719 5723 5726 5728 5731 5735 5739 5742 5745 5748 5751 5754 5756 5760 5764 5767 5770 5773 5776 5779 5782 5785 5788 5791 5793 5797 5800 5802 5803 5804 5807 5810 5813 5814 5818 5825 5826 5827 5831 5834 5836 5837 5837 5839 5841 5843 5845 5845 5846 5847
5493 5503 5512 5522 5531 5539 5547 5554 5559 5564 5570 5578 5586 5591 5596 5599 5603 5607 5608 5613 5623 5632 5639 5645 5650 5652 5655 5662 5670 5676 5682 5686 5691 5697 5699 5703 5708 5712 5715 5719 5722 5724 5728 5731 5735 5738 5742 5746 5749 5751 5755 5759 5762 5765 5768 5770 5773 5777 5779 5782 5786 5788 5790 5793 5796 5798 5799 5800 5803 5807 5810 5811 5813 5820 5824 5825 5829 5832 5833 5834 5834 5836 5838 5840 5841 5842 5843 5844
5495 5503 5513 5522 5530 5537 5542 5546 5551 5561 5569 5574 5579 5585 5587 5591 5596 5598 5601 5612 5622 5628 5633 5639 5644 5648 5653 5661 5668 5673 5678 5683 5687 5690 5694 5700 5704 5707 5710 5713 5717 5721 5725 5728 5731 5734 5738 5741 5744 5747 5751 5755 5758 5761 5764 5767 5769 5772 5775 5779 5782 5784 5786 5789 5791 5793 5794 5796 5801 5804 5806 5807 5808 5815 5821 5823 5826 5828 5829 5831 5832 5834 5835 5836 5837 5838 5839 5840
5496 5504 5515 5523 5528 5534 5539 5544 5550 5558 5566 5571 5573 5575 5580 5585 5590 5593 5601 5613 5617 5621 5629 5637 5642 5647 5654 5662 5668 5671 5675 5679 5683 5687 5692 5697 5700 5703 5707 5711 5714 5717 5721 5724 5727 5730 5734 5736 5740 5743 5746 5750 5753 5756 5759 5761 5764 5767 5771 5775 5778 5780 5781 5784 5786 5788 5790 5794 5798 5802 5803 5803 5805 5813 5818 5821 5823 5825 5826 5828 5829 5830 5832 5832 5834 5835 5836 5837
5497 5507 5515 5519 5524 5530 5534 5540 5545 5549 5557 5566 5568 5571 5576 5580 5582 5590 5602 5609 5613 5623 5633 5638 5642 5648 5653 5658 5661 5667 5673 5677 5680 5683 5689 5694 5698 5701 5705 5709 5712 5715 5719 5722 5722 5725 5728 5731 5735 5738 5742 5745 5748 5752 5754 5756 5759 5762 5766 5770 5773 5775 5777 5779 5782 5785 5789 5792 5796 5799 5800 5800 5804 5811 5814 5816 5819 5821 5823 5825 5826 5827 5828 5829 5830 5831 5833 5834
5498 5505 5510 5514 5519 5525 5529 5536 5542 5545 5551 5557 5563 5569 5573 5575 5583 5594 5602 5608 5616 5625 5630 5634 5639 5643 5647 5652 5657 5663 5668 5672 5677 5680 5684 5687 5692 5697 5701 5706 5709 5713 5717 5720 5721 5724 5726 5728 5731 5734 5737 5740 5744 5748 5752 5756 5760 5763 5766 5769 5772 5773 5775 5778 5781 5784 5788 5791 5793 5795 5796 5798 5802 5807 5811 5813 5815 5818 5820 5821 5823 5824 5825 5826 5827 5828 5829 5830
5496 5501 5505 5509 5513 5518 5525 5532 5539 5545 5547 5550 5558 5565 5568 5575 5586 5593 5598 5606 5615 5619 5624 5631 5636 5638 5642 5648 5654 5659 5663 5667 5672 5676 5680 5685 5689 5694 5698 5702 5705 5708 5712 5715 5719 5722 5726 5729 5732 5734 5737 5740 5743 5747 5750 5754 5756 5759 5762 5765 5768 5771 5773 5776 5778 5782 5784 5786 5788 5790 5793 5796 5800 5803 5807 5810 5811 5814 5816 5817 5819 5821 5822 5823 5824 5824 5825 5826
5492 5495 5499 5504 5508 5513 5521 5528 5534 5541 5546 5549 5554 5559 5569 5581 5588 5592 5599 5607 5612 5615 5620 5625 5629 5633 5638 5642 5648 5654 5661 5666 5670 5672 5677 5683 5688 5692 5696 5699 5702 5706 5709 5712 5715 5718 5721 5725 5729 5733 5735 5738 5742 5745 5748 5750 5752 5754 5756 5759 5764 5767 5770 5772 5775 5778 5780 5781 5783 5786 5790 5794 5797 5799 5803 5806 5808 5810 5812 5813 5815 5817 5818 5820 5820 5821 5822 5823
5485 5489 5494 5500 5504 5510 5517 5525 5532 5539 5545 5550 5553 5561 5573 5582 5586 5592 5599 5603 5607 5612 5616 5618 5622 5628 5634 5639 5645 5651 5657 5662 5667 5671 5675 5679 5683 5687 5692 5696 5701 5705 5708 5712 5715 5717 5721 5723 5726 5730 5733 5736 5739 5742 5745 5748 5750 5752 5754 5758 5762 5765 5767 5770 5771 5773 5775 5777 5779 5782 5787 5790 5792 5795 5799 5802 5804 5806 5808 5809 5811 5812 5814 5815 5817 5818 5819 5819
5481 5487 5491 5496 5501 5508 5515 5522 5530 5537 5543 5550 5558 5567 5573 5576 5581 5589 5594 5598 5603 5608 5613 5617 5622 5627 5632 5638 5644 5649 5653 5656 5661 5666 5671 5676 5681 5685 5689 5692 5697 5701 5705 5709 5712 5715 5719 5722 5725 5728 5731 5734 5737 5739 5742 5744 5746 5749 5753 5757 5760 5761 5764 5766 5767 5769 5771 5773 5775 5779 5783 5785 5788 5792 5796 5798 5799 5802 5804 5806 5807 5808 5810 5811 5812 5813 5814 5815
5477 5482 5486 5491 5498 5505 5512 5519 5528 5536 5541 5548 5556 5565 5569 5574 5580 5586 5590 5596 5601 5605 5611 5616 5622 5627 5631 5636 5641 5645 5648 5653 5657 5661 5665 5671 5677 5682 5686 5689 5694 5698 5701 5705 5708 5712 5716 5718 5721 5725 5728 5731 5733 5735 5737 5739 5742 5745 5748 5752 5754 5757 5760 5762 5764 5766 5768 5770 5772 5775 5777 5780 5786 5790 5792 5793 5795 5797 5800 5802 5803 5804 5805 5807 5808 5809 5810 5811
5475 5479 5483 5489 5495 5502 5510 5518 5526 5532 5539 5547 5554 5560 5567 5575 5580 5583 5588 5593 5598 5603 5609 5614 5620 5625 5629 5633 5638 5642 5646 5650 5654 5658 5663 5668 5672 5677 5681 5685 5690 5694 5697 5701 5704 5708 5712 5715 5717 5721 5723 5725 5728 5730 5734 5737 5740 5743 5745 5748 5751 5754 5756 5759 5761 5763 5765 5767 5768 5770 5772 5777 5784 5787 5789 5790 5792 5794 5796 5797 5799 5800 5802 5803 5804 5805 5806 5807
5472 5476 5479 5486 5492 5498 5506 5513 5522 5530 5537 5545 5550 5556 5563 5569 5574 5580 5586 5591 5595 5601 5609 5614 5618 5622 5626 5630 5634 5639 5644 5648 5652 5656 5660 5665 5669 5673 5678 5681 5686 5691 5693 5696 5699 5702 5706 5710 5713 5716 5719 5722 5725 5728 5732 5736 5739 5741 5743 5745 5749 5751 5754 5756 5758 5760 5762 5763 5764 5766 5767 5773 5781 5784 5786 5787 5788 5790 5791 5793 5795 5797 5798 5799 5800 5801 5801 5802
5468 5472 5477 5485 5491 5497 5503 5510 5520 5527 5532 5537 5545 5553 5559 5563 5569 5576 5581 5587 5592 5598 5606 5611 5614 5618 5623 5628 5633 5637 5641 5645 5650 5654 5658 5662 5667 5671 5676 5679 5683 5687 5690 5692 5695 5698 5702 5706 5708 5711 5716 5719 5722 5726 5729 5732 5735 5737 5739 5742 5744 5746 5748 5750 5752 5755 5758 5759 5761 5762 5763 5769 5778 5781 5782 5783 5784 5785 5787 5789 5791 5792 5793 5795 5795 5795 5796 5796
5465 5469 5476 5482 5488 5495 5502 5509 5514 5519 5526 5535 5543 5549 5555 5560 5565 5570 5576 5583 5588 5593 5600 5606 5610 5616 5620 5625 5629 5634 5639 5643 5647 5651 5655 5659 5664 5668 5672 5676 5680 5684 5686 5688 5691 5696 5700 5702 5705 5708 5712 5715 5718 5722 5725 5728 5730 5733 5735 5737 5738 5740 5743 5745 5747 5751 5753 5754 5757 5759 5758 5764 5773 5776 5777 5779 5780 5781 5783 5784 5786 5787 5788 5789 5789 5790 5790 5790
5462 5467 5473 5478 5485 5493 5499 5504 5508 5513 5523 5533 5538 5543 5550 5556 5561 5566 5573 5579 5585 5590 5596 5601 5607 5612 5617 5622 5626 5632 5637 5640 5643 5648 5652 5657 5661 5664 5668 5672 5676 5680 5683 5685 5688 5692 5695 5697 5701 5704 5707 5710 5713 5715 5718 5721 5723 5725 5728 5730 5732 5736 5739 5741 5744 5746 5748 5750 5754 5754 5754 5761 5770 5772 5772 5774 5775 5777 5778 5778 5780 5781 5782 5782 5783 5783 5784 5784
5457 5463 5470 5475 5481 5489 5496 5502 5509 5513 5519 5526 5533 5539 5546 5551 5557 5564 5570 5576 5582 5588 5593 5599 5604 5609 5613 5617 5622 5627 5632 5637 5641 5645 5649 5654 5658 5661 5665 5669 5673 5677 5682 5684 5686 5689 5692 5695 5698 5700 5702 5705 5708 5710 5713 5717 5719 5721 5725 5728 5731 5734 5736 5738 5740 5742 5744 5748 5750 5752 5755 5761 5766 5766 5765 5767 5768 5770 5770 5771 5772 5773 5774 5775 5776 5776 5777 5779
5452 5457 5466 5474 5481 5488 5493 5500 5507 5512 5517 5522 5528 5535 5541 5547 5553 5559 5566 5572 5578 5584 5590 5596 5600 5604 5608 5612 5617 5621 5627 5631 5635 5640 5645 5650 5654 5657 5661 5666 5670 5674 5678 5679 5681 5684 5687 5691 5695 5698 5701 5705 5707 5710 5715 5718 5719 5722 5726 5728 5729 5731 5733 5734 5735 5737 5742 5745 5745 5749 5753 5756 5757 5757 5757 5759 5762 5763 5764 5765 5766 5767 5768 5769 5769 5770 5772 5774
5451 5456 5463 5471 5479 5486 5492 5497 5502 5510 5518 5524 5527 5531 5537 5543 5549 5554 5560 5567 5574 5580 5587 5592 5596 5600 5604 5609 5613 5618 5623 5627 5630 5635 5639 5644 5649 5653 5657 5660 5664 5669 5672 5674 5676 5678 5680 5685 5690 5694 5698 5700 5702 5706 5711 5714 5716 5719 5722 5723 5724 5726 5727 5728 5729 5734 5738 5738 5738 5744 5748 5747 5750 5753 5753 5755 5757 5757 5758 5759 5760 5761 5762 5762 5764 5766 5767 5768
5453 5461 5468 5472 5476 5481 5488 5495 5501 5507 5515 5523 5527 5530 5534 5539 5545 5550 5556 5563 5570 5576 5582 5587 5592 5597 5603 5607 5612 5615 5618 5622 5627 5631 5634 5638 5643 5647 5650 5654 5658 5662 5666 5668 5671 5673 5676 5681 5685 5689 5692 5693 5694 5699 5704 5707 5709 5712 5713 5715 5718 5720 5721 5723 5726 5729 5731 5730 5734 5741 5742 5742 5746 5750 5750 5751 5751 5752 5753 5753 5753 5754 5756 5758 5760 5761 5761 5762
5455 5462 5469 5474 5479 5482 5486 5491 5497 5503 5510 5517 5523 5528 5533 5538 5543 5549 5554 5560 5566 5572 5577 5583 5589 5594 5599 5604 5608 5611 5614 5618 5623 5627 5631 5634 5637 5640 5643 5647 5651 5655 5659 5662 5665 5669 5672 5676 5679 5683 5686 5687 5689 5694 5698 5700 5702 5704 5706 5708 5711 5713 5716 5719 5722 5725 5725 5725 5731 5736 5735 5737 5744 5747 5747 5748 5747 5748 5748 5747 5747 5749 5751 5753 5754 5755 5755 5755
5453 5459 5466 5472 5478 5484 5488 5491 5494 5499 5505 5512 5517 5524 5531 5537 5543 5547 5552 5558 5564 5569 5574 5580 5586 5592 5596 5599 5603 5607 5613 5619 5623 5626 5629 5632 5634 5637 5639 5642 5646 5649 5653 5656 5660 5664 5668 5670 5673 5677 5679 5680 5684 5689 5691 5692 5694 5697 5699 5702 5705 5708 5712 5714 5718 5720 5719 5721 5728 5730 5729 5734 5741 5742 5744 5745 5743 5742 5742 5741 5742 5744 5746 5747 5748 5748 5748 5748
5451 5458 5464 5469 5474 5480 5486 5491 5495 5499 5503 5507 5513 5520 5527 5533 5541 5546 5552 5558 5565 5570 5575 5580 5584 5589 5592 5595 5599 5605 5610 5616 5620 5625 5629 5631 5635 5638 5639 5641 5644 5646 5649 5652 5655 5659 5663 5664 5667 5670 5672 5675 5679 5683 5684 5685 5687 5689 5692 5697 5701 5704 5707 5710 5713 5715 5715 5719 5724 5724 5725 5732 5736 5737 5740 5741 5737 5736 5736 5737 5738 5738 5739 5740 5740 5741 5741 5742
5449 5455 5461 5465 5470 5475 5481 5488 5493 5497 5502 5508 5513 5517 5523 5530 5537 5542 5549 5556 5562 5569 5575 5579 5583 5586 5588 5592 5597 5604 5608 5612 5616 5620 5622 5625 5629 5632 5634 5638 5641 5643 5646 5649 5652 5656 5659 5661 5664 5666 5668 5672 5675 5677 5679 5680 5678 5681 5689 5696 5699 5701 5703 5705 5707 5709 5712 5715 5717 5718 5723 5728 5729 5731 5735 5733 5730 5729 5729 5731 5732 5732 5732 5733 5732 5733 5734 5735